contact:dominique.lefevre@mio.osupytheas.fr, maurice.libes@osupytheas.fr, didier.mallarino@osupytheas.fr
Project:EMSO http://www.emso-fr.org/EMSO-France
Depth: 2436.0 m
Title:EMSO Ligure Ouest : Data MII capteur MICROCAT
DateTime_Computer,Latitude,Longitude,Temperature,Conductivity,Pressure,DateTime_Instrument
DateTime_Computer,Latitude,Longitude,degC,S m-1,dbar,DateTime_Instrument
2019-06-13T00:01:59Z,42.805,6.029,13.2953,4.59950,2469.773,2019-6-13T02:02:15Z
2019-06-13T00:05:02Z,42.805,6.029,13.2954,4.59949,2469.76,2019-6-13T02:05:18Z
2019-06-13T00:08:05Z,42.805,6.029,13.2950,4.59950,2469.773,2019-6-13T02:08:21Z
2019-06-13T00:11:08Z,42.805,6.029,13.2953,4.59950,2469.773,2019-6-13T02:11:24Z
2019-06-13T00:14:11Z,42.805,6.029,13.2950,4.59949,2469.75,2019-6-13T02:14:27Z
2019-06-13T00:17:14Z,42.805,6.029,13.2952,4.59951,2469.783,2019-6-13T02:17:29Z
2019-06-13T00:20:17Z,42.805,6.029,13.2951,4.59950,2469.773,2019-6-13T02:20:32Z
2019-06-13T00:23:19Z,42.805,6.029,13.2949,4.59951,2469.76,2019-6-13T02:23:35Z
2019-06-13T00:26:22Z,42.805,6.029,13.2952,4.59950,2469.783,2019-6-13T02:26:38Z
2019-06-13T00:29:25Z,42.805,6.029,13.2952,4.59950,2469.783,2019-6-13T02:29:41Z
2019-06-13T00:32:28Z,42.805,6.029,13.2954,4.59950,2469.76,2019-6-13T02:32:44Z
2019-06-13T00:35:31Z,42.805,6.029,13.2951,4.59950,2469.806,2019-6-13T02:35:47Z
2019-06-13T00:38:34Z,42.805,6.029,13.2950,4.59951,2469.783,2019-6-13T02:38:50Z
2019-06-13T00:41:37Z,42.805,6.029,13.2953,4.59951,2469.76,2019-6-13T02:41:53Z
2019-06-13T00:44:40Z,42.805,6.029,13.2952,4.59950,2469.797,2019-6-13T02:44:56Z
2019-06-13T00:47:43Z,42.805,6.029,13.2951,4.59950,2469.76,2019-6-13T02:47:59Z
2019-06-13T00:50:46Z,42.805,6.029,13.2953,4.59951,2469.806,2019-6-13T02:51:02Z
2019-06-13T00:53:49Z,42.805,6.029,13.2957,4.59951,2469.806,2019-6-13T02:54:05Z
2019-06-13T00:56:52Z,42.805,6.029,13.2949,4.59951,2469.821,2019-6-13T02:57:08Z
2019-06-13T00:59:55Z,42.805,6.029,13.2954,4.59950,2469.797,2019-6-13T03:00:11Z
2019-06-13T01:02:58Z,42.805,6.029,13.2951,4.59951,2469.806,2019-6-13T03:03:14Z
2019-06-13T01:06:01Z,42.805,6.029,13.2952,4.59951,2469.821,2019-6-13T03:06:17Z
2019-06-13T01:09:04Z,42.805,6.029,13.2952,4.59950,2469.806,2019-6-13T03:09:20Z
2019-06-13T01:12:07Z,42.805,6.029,13.2953,4.59951,2469.783,2019-6-13T03:12:23Z
2019-06-13T01:15:10Z,42.805,6.029,13.2952,4.59951,2469.821,2019-6-13T03:15:26Z
2019-06-13T01:18:13Z,42.805,6.029,13.2950,4.59951,2469.806,2019-6-13T03:18:28Z
2019-06-13T01:21:16Z,42.805,6.029,13.2951,4.59950,2469.806,2019-6-13T03:21:31Z
2019-06-13T01:24:18Z,42.805,6.029,13.2949,4.59950,2469.83,2019-6-13T03:24:34Z
2019-06-13T01:27:21Z,42.805,6.029,13.2953,4.59950,2469.797,2019-6-13T03:27:37Z
2019-06-13T01:30:24Z,42.805,6.029,13.2949,4.59951,2469.83,2019-6-13T03:30:40Z
2019-06-13T01:33:27Z,42.805,6.029,13.2952,4.59951,2469.867,2019-6-13T03:33:43Z
2019-06-13T01:36:30Z,42.805,6.029,13.2952,4.59951,2469.844,2019-6-13T03:36:46Z
2019-06-13T01:39:33Z,42.805,6.029,13.2953,4.59951,2469.806,2019-6-13T03:39:49Z
2019-06-13T01:42:36Z,42.805,6.029,13.2953,4.59950,2469.853,2019-6-13T03:42:52Z
2019-06-13T01:45:39Z,42.805,6.029,13.2953,4.59950,2469.821,2019-6-13T03:45:55Z
2019-06-13T01:48:42Z,42.805,6.029,13.2953,4.59951,2469.844,2019-6-13T03:48:58Z
2019-06-13T01:51:45Z,42.805,6.029,13.2954,4.59951,2469.83,2019-6-13T03:52:01Z
2019-06-13T01:54:48Z,42.805,6.029,13.2952,4.59951,2469.853,2019-6-13T03:55:04Z
2019-06-13T01:57:51Z,42.805,6.029,13.2951,4.59950,2469.853,2019-6-13T03:58:07Z
2019-06-13T02:00:54Z,42.805,6.029,13.2951,4.59950,2469.83,2019-6-13T04:01:10Z
2019-06-13T02:03:57Z,42.805,6.029,13.2954,4.59951,2469.867,2019-6-13T04:04:13Z
2019-06-13T02:07:00Z,42.805,6.029,13.2953,4.59951,2469.83,2019-6-13T04:07:16Z
2019-06-13T02:10:03Z,42.805,6.029,13.2948,4.59950,2469.853,2019-6-13T04:10:19Z
2019-06-13T02:13:06Z,42.805,6.029,13.2953,4.59951,2469.844,2019-6-13T04:13:22Z
2019-06-13T02:16:09Z,42.805,6.029,13.2948,4.59950,2469.876,2019-6-13T04:16:25Z
2019-06-13T02:19:12Z,42.805,6.029,13.2949,4.59951,2469.844,2019-6-13T04:19:27Z
2019-06-13T02:22:14Z,42.805,6.029,13.2952,4.59950,2469.806,2019-6-13T04:22:30Z
2019-06-13T02:25:17Z,42.805,6.029,13.2953,4.59951,2469.83,2019-6-13T04:25:33Z
2019-06-13T02:28:20Z,42.805,6.029,13.2954,4.59951,2469.867,2019-6-13T04:28:36Z
2019-06-13T02:31:23Z,42.805,6.029,13.2952,4.59951,2469.83,2019-6-13T04:31:39Z
2019-06-13T02:34:26Z,42.805,6.029,13.2952,4.59950,2469.89,2019-6-13T04:34:42Z
2019-06-13T02:37:29Z,42.805,6.029,13.2952,4.59950,2469.89,2019-6-13T04:37:45Z
2019-06-13T02:40:32Z,42.805,6.029,13.2957,4.59951,2469.853,2019-6-13T04:40:48Z
2019-06-13T02:43:35Z,42.805,6.029,13.2953,4.59951,2469.83,2019-6-13T04:43:51Z
2019-06-13T02:46:38Z,42.805,6.029,13.2953,4.59951,2469.876,2019-6-13T04:46:54Z
2019-06-13T02:49:41Z,42.805,6.029,13.2950,4.59951,2469.867,2019-6-13T04:49:57Z
2019-06-13T02:52:44Z,42.805,6.029,13.2952,4.59951,2469.853,2019-6-13T04:53:00Z
2019-06-13T02:55:47Z,42.805,6.029,13.2953,4.59951,2469.9,2019-6-13T04:56:03Z
2019-06-13T02:58:50Z,42.805,6.029,13.2952,4.59951,2469.853,2019-6-13T04:59:06Z
2019-06-13T03:01:53Z,42.805,6.029,13.2954,4.59951,2469.876,2019-6-13T05:02:09Z
2019-06-13T03:04:56Z,42.805,6.029,13.2952,4.59952,2469.89,2019-6-13T05:05:12Z
2019-06-13T03:07:59Z,42.805,6.029,13.2955,4.59951,2469.876,2019-6-13T05:08:15Z
2019-06-13T03:11:02Z,42.805,6.029,13.2951,4.59951,2469.853,2019-6-13T05:11:18Z
2019-06-13T03:14:05Z,42.805,6.029,13.2952,4.59953,2469.853,2019-6-13T05:14:21Z
2019-06-13T03:17:08Z,42.805,6.029,13.2951,4.59951,2469.876,2019-6-13T05:17:24Z
2019-06-13T03:20:11Z,42.805,6.029,13.2949,4.59951,2469.9,2019-6-13T05:20:26Z
2019-06-13T03:23:13Z,42.805,6.029,13.2953,4.59953,2469.876,2019-6-13T05:23:29Z
2019-06-13T03:26:16Z,42.805,6.029,13.2953,4.59951,2469.853,2019-6-13T05:26:32Z
2019-06-13T03:29:19Z,42.805,6.029,13.2955,4.59951,2469.853,2019-6-13T05:29:35Z
2019-06-13T03:32:22Z,42.805,6.029,13.2949,4.59951,2469.914,2019-6-13T05:32:38Z
2019-06-13T03:35:25Z,42.805,6.029,13.2952,4.59951,2469.9,2019-6-13T05:35:41Z
2019-06-13T03:38:28Z,42.805,6.029,13.2953,4.59951,2469.876,2019-6-13T05:38:44Z
2019-06-13T03:41:31Z,42.805,6.029,13.2952,4.59951,2469.89,2019-6-13T05:41:47Z
2019-06-13T03:44:34Z,42.805,6.029,13.2951,4.59951,2469.914,2019-6-13T05:44:50Z
2019-06-13T03:47:37Z,42.805,6.029,13.2953,4.59951,2469.876,2019-6-13T05:47:53Z
2019-06-13T03:50:40Z,42.805,6.029,13.2952,4.59951,2469.876,2019-6-13T05:50:56Z
2019-06-13T03:53:43Z,42.805,6.029,13.2952,4.59953,2469.89,2019-6-13T05:53:59Z
2019-06-13T03:56:46Z,42.805,6.029,13.2953,4.59951,2469.867,2019-6-13T05:57:02Z
2019-06-13T03:59:49Z,42.805,6.029,13.2952,4.59951,2469.89,2019-6-13T06:00:05Z
2019-06-13T04:02:52Z,42.805,6.029,13.2952,4.59951,2469.9,2019-6-13T06:03:08Z
2019-06-13T04:05:55Z,42.805,6.029,13.2951,4.59951,2469.876,2019-6-13T06:06:11Z
2019-06-13T04:08:58Z,42.805,6.029,13.2953,4.59951,2469.876,2019-6-13T06:09:14Z
2019-06-13T04:12:01Z,42.805,6.029,13.2956,4.59951,2469.867,2019-6-13T06:12:17Z
2019-06-13T04:15:04Z,42.805,6.029,13.2957,4.59951,2469.914,2019-6-13T06:15:20Z
2019-06-13T04:18:07Z,42.805,6.029,13.2953,4.59951,2469.876,2019-6-13T06:18:22Z
2019-06-13T04:21:09Z,42.805,6.029,13.2954,4.59951,2469.89,2019-6-13T06:21:25Z
2019-06-13T04:24:12Z,42.805,6.029,13.2948,4.59951,2469.876,2019-6-13T06:24:28Z
2019-06-13T04:27:15Z,42.805,6.029,13.2953,4.59951,2469.914,2019-6-13T06:27:31Z
2019-06-13T04:30:18Z,42.805,6.029,13.2953,4.59952,2469.853,2019-6-13T06:30:34Z
2019-06-13T04:33:21Z,42.805,6.029,13.2950,4.59952,2469.876,2019-6-13T06:33:37Z
2019-06-13T04:36:24Z,42.805,6.029,13.2952,4.59953,2469.876,2019-6-13T06:36:40Z
2019-06-13T04:39:27Z,42.805,6.029,13.2949,4.59951,2469.876,2019-6-13T06:39:43Z
2019-06-13T04:42:30Z,42.805,6.029,13.2951,4.59950,2469.876,2019-6-13T06:42:46Z
2019-06-13T04:45:33Z,42.805,6.029,13.2954,4.59952,2469.876,2019-6-13T06:45:49Z
2019-06-13T04:48:36Z,42.805,6.029,13.2952,4.59951,2469.876,2019-6-13T06:48:52Z
2019-06-13T04:51:39Z,42.805,6.029,13.2951,4.59951,2469.89,2019-6-13T06:51:55Z
2019-06-13T04:54:42Z,42.805,6.029,13.2948,4.59951,2469.876,2019-6-13T06:54:58Z
2019-06-13T04:57:45Z,42.805,6.029,13.2952,4.59951,2469.853,2019-6-13T06:58:01Z
2019-06-13T05:00:48Z,42.805,6.029,13.2951,4.59952,2469.876,2019-6-13T07:01:04Z
2019-06-13T05:03:51Z,42.805,6.029,13.2950,4.59950,2469.867,2019-6-13T07:04:07Z
2019-06-13T05:06:54Z,42.805,6.029,13.2956,4.59951,2469.89,2019-6-13T07:07:10Z
2019-06-13T05:09:57Z,42.805,6.029,13.2948,4.59951,2469.867,2019-6-13T07:10:13Z
2019-06-13T05:13:00Z,42.805,6.029,13.2952,4.59953,2469.876,2019-6-13T07:13:16Z
2019-06-13T05:16:03Z,42.805,6.029,13.2951,4.59951,2469.89,2019-6-13T07:16:18Z
2019-06-13T05:19:06Z,42.805,6.029,13.2952,4.59951,2469.9,2019-6-13T07:19:21Z
2019-06-13T05:22:08Z,42.805,6.029,13.2955,4.59952,2469.867,2019-6-13T07:22:24Z
2019-06-13T05:25:11Z,42.805,6.029,13.2956,4.59951,2469.89,2019-6-13T07:25:27Z
2019-06-13T05:28:14Z,42.805,6.029,13.2952,4.59951,2469.867,2019-6-13T07:28:30Z
2019-06-13T05:31:17Z,42.805,6.029,13.2952,4.59951,2469.853,2019-6-13T07:31:33Z
2019-06-13T05:34:20Z,42.805,6.029,13.2953,4.59951,2469.89,2019-6-13T07:34:36Z
2019-06-13T05:37:23Z,42.805,6.029,13.2957,4.59952,2469.83,2019-6-13T07:37:39Z
2019-06-13T05:40:26Z,42.805,6.029,13.2952,4.59951,2469.853,2019-6-13T07:40:42Z
2019-06-13T05:43:29Z,42.805,6.029,13.2953,4.59951,2469.853,2019-6-13T07:43:45Z
2019-06-13T05:46:32Z,42.805,6.029,13.2952,4.59951,2469.867,2019-6-13T07:46:48Z
2019-06-13T05:49:35Z,42.805,6.029,13.2952,4.59951,2469.844,2019-6-13T07:49:51Z
2019-06-13T05:52:38Z,42.805,6.029,13.2951,4.59951,2469.853,2019-6-13T07:52:54Z
2019-06-13T05:55:41Z,42.805,6.029,13.2953,4.59951,2469.867,2019-6-13T07:55:57Z
2019-06-13T05:58:44Z,42.805,6.029,13.2952,4.59951,2469.844,2019-6-13T07:59:00Z
2019-06-13T06:01:47Z,42.805,6.029,13.2948,4.59951,2469.876,2019-6-13T08:02:03Z
2019-06-13T06:04:50Z,42.805,6.029,13.2953,4.59951,2469.83,2019-6-13T08:05:06Z
2019-06-13T06:07:53Z,42.805,6.029,13.2948,4.59951,2469.867,2019-6-13T08:08:09Z
2019-06-13T06:10:56Z,42.805,6.029,13.2952,4.59951,2469.853,2019-6-13T08:11:12Z
2019-06-13T06:13:59Z,42.805,6.029,13.2949,4.59951,2469.83,2019-6-13T08:14:15Z
2019-06-13T06:17:02Z,42.805,6.029,13.2949,4.59951,2469.83,2019-6-13T08:17:17Z
2019-06-13T06:20:04Z,42.805,6.029,13.2949,4.59951,2469.844,2019-6-13T08:20:20Z
2019-06-13T06:23:07Z,42.805,6.029,13.2955,4.59951,2469.844,2019-6-13T08:23:23Z
2019-06-13T06:26:10Z,42.805,6.029,13.2952,4.59951,2469.83,2019-6-13T08:26:26Z
2019-06-13T06:29:13Z,42.805,6.029,13.2953,4.59951,2469.806,2019-6-13T08:29:29Z
2019-06-13T06:32:16Z,42.805,6.029,13.2948,4.59951,2469.844,2019-6-13T08:32:32Z
2019-06-13T06:35:19Z,42.805,6.029,13.2954,4.59951,2469.816,2019-6-13T08:35:35Z
2019-06-13T06:38:22Z,42.805,6.029,13.2951,4.59951,2469.773,2019-6-13T08:38:38Z
2019-06-13T06:41:25Z,42.805,6.029,13.2949,4.59951,2469.806,2019-6-13T08:41:41Z
2019-06-13T06:44:28Z,42.805,6.029,13.2950,4.59951,2469.853,2019-6-13T08:44:44Z
2019-06-13T06:47:31Z,42.805,6.029,13.2950,4.59951,2469.806,2019-6-13T08:47:47Z
2019-06-13T06:50:34Z,42.805,6.029,13.2950,4.59951,2469.821,2019-6-13T08:50:50Z
2019-06-13T06:53:37Z,42.805,6.029,13.2948,4.59950,2469.821,2019-6-13T08:53:53Z
2019-06-13T06:56:40Z,42.805,6.029,13.2952,4.59951,2469.844,2019-6-13T08:56:56Z
2019-06-13T06:59:43Z,42.805,6.029,13.2952,4.59951,2469.83,2019-6-13T08:59:59Z
2019-06-13T07:02:46Z,42.805,6.029,13.2950,4.59951,2469.83,2019-6-13T09:03:02Z
2019-06-13T07:05:49Z,42.805,6.029,13.2953,4.59951,2469.806,2019-6-13T09:06:05Z
2019-06-13T07:08:52Z,42.805,6.029,13.2951,4.59951,2469.806,2019-6-13T09:09:08Z
2019-06-13T07:11:55Z,42.805,6.029,13.2951,4.59951,2469.806,2019-6-13T09:12:11Z
2019-06-13T07:14:58Z,42.805,6.029,13.2949,4.59951,2469.793,2019-6-13T09:15:13Z
2019-06-13T07:18:00Z,42.805,6.029,13.2952,4.59953,2469.783,2019-6-13T09:18:16Z
2019-06-13T07:21:03Z,42.805,6.029,13.2953,4.59951,2469.797,2019-6-13T09:21:19Z
2019-06-13T07:24:06Z,42.805,6.029,13.2955,4.59953,2469.783,2019-6-13T09:24:22Z
2019-06-13T07:27:09Z,42.805,6.029,13.2952,4.59952,2469.797,2019-6-13T09:27:25Z
2019-06-13T07:30:12Z,42.805,6.029,13.2948,4.59951,2469.806,2019-6-13T09:30:28Z
2019-06-13T07:33:15Z,42.805,6.029,13.2952,4.59951,2469.783,2019-6-13T09:33:31Z
2019-06-13T07:36:18Z,42.805,6.029,13.2952,4.59952,2469.797,2019-6-13T09:36:34Z
2019-06-13T07:39:21Z,42.805,6.029,13.2950,4.59952,2469.783,2019-6-13T09:39:37Z
2019-06-13T07:42:24Z,42.805,6.029,13.2952,4.59951,2469.797,2019-6-13T09:42:40Z
2019-06-13T07:45:27Z,42.805,6.029,13.2953,4.59951,2469.806,2019-6-13T09:45:43Z
2019-06-13T07:48:30Z,42.805,6.029,13.2953,4.59951,2469.76,2019-6-13T09:48:46Z
2019-06-13T07:51:33Z,42.805,6.029,13.2952,4.59951,2469.783,2019-6-13T09:51:49Z
2019-06-13T07:54:36Z,42.805,6.029,13.2950,4.59951,2469.783,2019-6-13T09:54:52Z
2019-06-13T07:57:39Z,42.805,6.029,13.2953,4.59951,2469.76,2019-6-13T09:57:55Z
2019-06-13T08:00:42Z,42.805,6.029,13.2952,4.59951,2469.76,2019-6-13T10:00:58Z
2019-06-13T08:03:45Z,42.805,6.029,13.2953,4.59951,2469.797,2019-6-13T10:04:01Z
2019-06-13T08:06:48Z,42.805,6.029,13.2951,4.59951,2469.783,2019-6-13T10:07:04Z
2019-06-13T08:09:51Z,42.805,6.029,13.2952,4.59951,2469.773,2019-6-13T10:10:07Z
2019-06-13T08:12:54Z,42.805,6.029,13.2951,4.59951,2469.76,2019-6-13T10:13:10Z
2019-06-13T08:15:57Z,42.805,6.029,13.2953,4.59951,2469.76,2019-6-13T10:16:13Z
2019-06-13T08:19:00Z,42.805,6.029,13.2953,4.59951,2469.76,2019-6-13T10:19:15Z
2019-06-13T08:22:02Z,42.805,6.029,13.2952,4.59951,2469.76,2019-6-13T10:22:18Z
2019-06-13T08:25:05Z,42.805,6.029,13.2950,4.59951,2469.76,2019-6-13T10:25:21Z
2019-06-13T08:28:08Z,42.805,6.029,13.2952,4.59951,2469.737,2019-6-13T10:28:24Z
2019-06-13T08:31:11Z,42.805,6.029,13.2950,4.59951,2469.75,2019-6-13T10:31:27Z
2019-06-13T08:34:14Z,42.805,6.029,13.2954,4.59951,2469.773,2019-6-13T10:34:30Z
2019-06-13T08:37:17Z,42.805,6.029,13.2951,4.59950,2469.797,2019-6-13T10:37:33Z
2019-06-13T08:40:20Z,42.805,6.029,13.2953,4.59951,2469.783,2019-6-13T10:40:36Z
2019-06-13T08:43:23Z,42.805,6.029,13.2949,4.59951,2469.737,2019-6-13T10:43:39Z
2019-06-13T08:46:26Z,42.805,6.029,13.2952,4.59951,2469.737,2019-6-13T10:46:42Z
2019-06-13T08:49:29Z,42.805,6.029,13.2955,4.59951,2469.737,2019-6-13T10:49:45Z
2019-06-13T08:52:32Z,42.805,6.029,13.2952,4.59951,2469.737,2019-6-13T10:52:48Z
2019-06-13T08:55:35Z,42.805,6.029,13.2952,4.59951,2469.737,2019-6-13T10:55:51Z
2019-06-13T08:58:38Z,42.805,6.029,13.2953,4.59951,2469.737,2019-6-13T10:58:54Z
2019-06-13T09:01:41Z,42.805,6.029,13.2953,4.59953,2469.727,2019-6-13T11:01:57Z
2019-06-13T09:04:44Z,42.805,6.029,13.2951,4.59952,2469.75,2019-6-13T11:05:00Z
2019-06-13T09:07:47Z,42.805,6.029,13.2953,4.59952,2469.713,2019-6-13T11:08:03Z
2019-06-13T09:10:50Z,42.805,6.029,13.2952,4.59951,2469.737,2019-6-13T11:11:06Z
2019-06-13T09:13:53Z,42.805,6.029,13.2951,4.59951,2469.75,2019-6-13T11:14:09Z
2019-06-13T09:16:56Z,42.805,6.029,13.2957,4.59951,2469.713,2019-6-13T11:17:12Z
2019-06-13T09:19:59Z,42.805,6.029,13.2950,4.59951,2469.76,2019-6-13T11:20:15Z
2019-06-13T09:23:02Z,42.805,6.029,13.2954,4.59951,2469.727,2019-6-13T11:23:17Z
2019-06-13T09:26:04Z,42.805,6.029,13.2950,4.59951,2469.727,2019-6-13T11:26:20Z
2019-06-13T09:29:07Z,42.805,6.029,13.2951,4.59951,2469.713,2019-6-13T11:29:23Z
2019-06-13T09:32:10Z,42.805,6.029,13.2952,4.59951,2469.713,2019-6-13T11:32:26Z
2019-06-13T09:35:13Z,42.805,6.029,13.2952,4.59951,2469.713,2019-6-13T11:35:29Z
2019-06-13T09:38:16Z,42.805,6.029,13.2953,4.59951,2469.727,2019-6-13T11:38:32Z
2019-06-13T09:41:19Z,42.805,6.029,13.2951,4.59951,2469.727,2019-6-13T11:41:35Z
2019-06-13T09:44:22Z,42.805,6.029,13.2954,4.59951,2469.727,2019-6-13T11:44:38Z
2019-06-13T09:47:25Z,42.805,6.029,13.2952,4.59951,2469.727,2019-6-13T11:47:41Z
2019-06-13T09:50:28Z,42.805,6.029,13.2950,4.59951,2469.713,2019-6-13T11:50:44Z
2019-06-13T09:53:31Z,42.805,6.029,13.2953,4.59953,2469.713,2019-6-13T11:53:47Z
2019-06-13T09:56:34Z,42.805,6.029,13.2948,4.59952,2469.713,2019-6-13T11:56:50Z
2019-06-13T09:59:37Z,42.805,6.029,13.2952,4.59951,2469.704,2019-6-13T11:59:53Z
2019-06-13T10:02:40Z,42.805,6.029,13.2956,4.59951,2469.713,2019-6-13T12:02:56Z
2019-06-13T10:05:43Z,42.805,6.029,13.2950,4.59951,2469.713,2019-6-13T12:05:59Z
2019-06-13T10:08:46Z,42.805,6.029,13.2951,4.59951,2469.704,2019-6-13T12:09:02Z
2019-06-13T10:11:49Z,42.805,6.029,13.2951,4.59951,2469.713,2019-6-13T12:12:05Z
2019-06-13T10:14:52Z,42.805,6.029,13.2952,4.59952,2469.713,2019-6-13T12:15:08Z
2019-06-13T10:17:55Z,42.805,6.029,13.2956,4.59951,2469.68,2019-6-13T12:18:11Z
2019-06-13T10:20:58Z,42.805,6.029,13.2957,4.59951,2469.704,2019-6-13T12:21:14Z
2019-06-13T10:24:01Z,42.805,6.029,13.2953,4.59952,2469.69,2019-6-13T12:24:17Z
2019-06-13T10:27:04Z,42.805,6.029,13.2953,4.59951,2469.704,2019-6-13T12:27:19Z
2019-06-13T10:30:07Z,42.805,6.029,13.2953,4.59951,2469.69,2019-6-13T12:30:22Z
2019-06-13T10:33:09Z,42.805,6.029,13.2952,4.59951,2469.704,2019-6-13T12:33:25Z
2019-06-13T10:36:12Z,42.805,6.029,13.2954,4.59954,2469.704,2019-6-13T12:36:28Z
2019-06-13T10:39:15Z,42.805,6.029,13.2954,4.59952,2469.69,2019-6-13T12:39:31Z
2019-06-13T10:42:18Z,42.805,6.029,13.2952,4.59951,2469.69,2019-6-13T12:42:34Z
2019-06-13T10:45:21Z,42.805,6.029,13.2953,4.59952,2469.69,2019-6-13T12:45:37Z
2019-06-13T10:48:24Z,42.805,6.029,13.2952,4.59951,2469.713,2019-6-13T12:48:40Z
2019-06-13T10:51:27Z,42.805,6.029,13.2952,4.59951,2469.69,2019-6-13T12:51:43Z
2019-06-13T10:54:30Z,42.805,6.029,13.2952,4.59951,2469.704,2019-6-13T12:54:46Z
2019-06-13T10:57:33Z,42.805,6.029,13.2951,4.59951,2469.69,2019-6-13T12:57:49Z
2019-06-13T11:00:36Z,42.805,6.029,13.2952,4.59953,2469.713,2019-6-13T13:00:52Z
2019-06-13T11:03:39Z,42.805,6.029,13.2953,4.59951,2469.69,2019-6-13T13:03:55Z
2019-06-13T11:06:42Z,42.805,6.029,13.2953,4.59952,2469.737,2019-6-13T13:06:58Z
2019-06-13T11:09:45Z,42.805,6.029,13.2949,4.59953,2469.68,2019-6-13T13:10:01Z
2019-06-13T11:12:48Z,42.805,6.029,13.2951,4.59951,2469.704,2019-6-13T13:13:04Z
2019-06-13T11:15:51Z,42.805,6.029,13.2951,4.59951,2469.727,2019-6-13T13:16:07Z
2019-06-13T11:18:54Z,42.805,6.029,13.2952,4.59951,2469.713,2019-6-13T13:19:10Z
2019-06-13T11:21:57Z,42.805,6.029,13.2951,4.59952,2469.69,2019-6-13T13:22:13Z
2019-06-13T11:25:00Z,42.805,6.029,13.2951,4.59952,2469.68,2019-6-13T13:25:16Z
2019-06-13T11:28:03Z,42.805,6.029,13.2952,4.59952,2469.704,2019-6-13T13:28:19Z
2019-06-13T11:31:06Z,42.805,6.029,13.2949,4.59951,2469.704,2019-6-13T13:31:22Z
2019-06-13T11:34:09Z,42.805,6.029,13.2951,4.59952,2469.68,2019-6-13T13:34:25Z
2019-06-13T11:37:12Z,42.805,6.029,13.2952,4.59951,2469.68,2019-6-13T13:37:27Z
2019-06-13T11:40:14Z,42.805,6.029,13.2952,4.59951,2469.69,2019-6-13T13:40:30Z
2019-06-13T11:43:17Z,42.805,6.029,13.2952,4.59951,2469.68,2019-6-13T13:43:33Z
2019-06-13T11:46:20Z,42.805,6.029,13.2952,4.59953,2469.69,2019-6-13T13:46:36Z
2019-06-13T11:49:23Z,42.805,6.029,13.2953,4.59951,2469.704,2019-6-13T13:49:39Z
2019-06-13T11:52:26Z,42.805,6.029,13.2953,4.59952,2469.704,2019-6-13T13:52:42Z
2019-06-13T11:55:29Z,42.805,6.029,13.2954,4.59952,2469.68,2019-6-13T13:55:45Z
2019-06-13T11:58:32Z,42.805,6.029,13.2950,4.59952,2469.68,2019-6-13T13:58:48Z
2019-06-13T12:01:35Z,42.805,6.029,13.2954,4.59951,2469.727,2019-6-13T14:01:51Z
2019-06-13T12:04:38Z,42.805,6.029,13.2949,4.59951,2469.69,2019-6-13T14:04:54Z
2019-06-13T12:07:41Z,42.805,6.029,13.2953,4.59951,2469.704,2019-6-13T14:07:57Z
2019-06-13T12:10:44Z,42.805,6.029,13.2953,4.59951,2469.69,2019-6-13T14:11:00Z
2019-06-13T12:13:47Z,42.805,6.029,13.2954,4.59951,2469.727,2019-6-13T14:14:03Z
2019-06-13T12:16:50Z,42.805,6.029,13.2953,4.59951,2469.727,2019-6-13T14:17:06Z
2019-06-13T12:19:53Z,42.805,6.029,13.2957,4.59953,2469.713,2019-6-13T14:20:09Z
2019-06-13T12:22:56Z,42.805,6.029,13.2954,4.59951,2469.704,2019-6-13T14:23:12Z
2019-06-13T12:25:59Z,42.805,6.029,13.2950,4.59953,2469.69,2019-6-13T14:26:15Z
2019-06-13T12:29:02Z,42.805,6.029,13.2953,4.59951,2469.713,2019-6-13T14:29:18Z
2019-06-13T12:32:05Z,42.805,6.029,13.2949,4.59952,2469.713,2019-6-13T14:32:21Z
2019-06-13T12:35:08Z,42.805,6.029,13.2956,4.59951,2469.69,2019-6-13T14:35:24Z
2019-06-13T12:38:11Z,42.805,6.029,13.2954,4.59954,2469.713,2019-6-13T14:38:27Z
2019-06-13T12:41:14Z,42.805,6.029,13.2953,4.59951,2469.713,2019-6-13T14:41:30Z
2019-06-13T12:44:17Z,42.805,6.029,13.2954,4.59953,2469.713,2019-6-13T14:44:32Z
2019-06-13T12:47:19Z,42.805,6.029,13.2956,4.59952,2469.737,2019-6-13T14:47:35Z
2019-06-13T12:50:22Z,42.805,6.029,13.2953,4.59951,2469.75,2019-6-13T14:50:38Z
2019-06-13T12:53:25Z,42.805,6.029,13.2954,4.59953,2469.727,2019-6-13T14:53:41Z
2019-06-13T12:56:28Z,42.805,6.029,13.2952,4.59952,2469.713,2019-6-13T14:56:44Z
2019-06-13T12:59:31Z,42.805,6.029,13.2957,4.59952,2469.75,2019-6-13T14:59:47Z
2019-06-13T13:02:34Z,42.805,6.029,13.2949,4.59952,2469.737,2019-6-13T15:02:50Z
2019-06-13T13:05:37Z,42.805,6.029,13.2954,4.59952,2469.713,2019-6-13T15:05:53Z
2019-06-13T13:08:40Z,42.805,6.029,13.2952,4.59951,2469.727,2019-6-13T15:08:56Z
2019-06-13T13:11:43Z,42.805,6.029,13.2954,4.59952,2469.713,2019-6-13T15:11:59Z
2019-06-13T13:14:46Z,42.805,6.029,13.2955,4.59952,2469.75,2019-6-13T15:15:02Z
2019-06-13T13:17:49Z,42.805,6.029,13.2952,4.59952,2469.76,2019-6-13T15:18:05Z
2019-06-13T13:20:52Z,42.805,6.029,13.2952,4.59953,2469.727,2019-6-13T15:21:08Z
2019-06-13T13:23:55Z,42.805,6.029,13.2952,4.59952,2469.737,2019-6-13T15:24:11Z
2019-06-13T13:26:58Z,42.805,6.029,13.2955,4.59951,2469.773,2019-6-13T15:27:14Z
2019-06-13T13:30:01Z,42.805,6.029,13.2956,4.59952,2469.737,2019-6-13T15:30:17Z
2019-06-13T13:33:04Z,42.805,6.029,13.2953,4.59952,2469.783,2019-6-13T15:33:20Z
2019-06-13T13:36:07Z,42.805,6.029,13.2953,4.59952,2469.773,2019-6-13T15:36:23Z
2019-06-13T13:39:10Z,42.805,6.029,13.2952,4.59951,2469.75,2019-6-13T15:39:26Z
2019-06-13T13:42:13Z,42.805,6.029,13.2957,4.59953,2469.76,2019-6-13T15:42:29Z
2019-06-13T13:45:16Z,42.805,6.029,13.2950,4.59951,2469.737,2019-6-13T15:45:32Z
2019-06-13T13:48:19Z,42.805,6.029,13.2954,4.59951,2469.773,2019-6-13T15:48:34Z
2019-06-13T13:51:21Z,42.805,6.029,13.2952,4.59952,2469.76,2019-6-13T15:51:37Z
2019-06-13T13:54:24Z,42.805,6.029,13.2955,4.59954,2469.76,2019-6-13T15:54:40Z
2019-06-13T13:57:27Z,42.805,6.029,13.2952,4.59951,2469.783,2019-6-13T15:57:43Z
2019-06-13T14:00:30Z,42.805,6.029,13.2953,4.59951,2469.783,2019-6-13T16:00:46Z
2019-06-13T14:03:33Z,42.805,6.029,13.2951,4.59952,2469.797,2019-6-13T16:03:49Z
2019-06-13T14:06:36Z,42.805,6.029,13.2949,4.59952,2469.797,2019-6-13T16:06:52Z
2019-06-13T14:09:39Z,42.805,6.029,13.2948,4.59951,2469.76,2019-6-13T16:09:55Z
2019-06-13T14:12:42Z,42.805,6.029,13.2953,4.59951,2469.797,2019-6-13T16:12:58Z
2019-06-13T14:15:45Z,42.805,6.029,13.2951,4.59952,2469.773,2019-6-13T16:16:01Z
2019-06-13T14:18:48Z,42.805,6.029,13.2953,4.59952,2469.783,2019-6-13T16:19:04Z
2019-06-13T14:21:51Z,42.805,6.029,13.2955,4.59952,2469.773,2019-6-13T16:22:07Z
2019-06-13T14:24:54Z,42.805,6.029,13.2954,4.59951,2469.783,2019-6-13T16:25:10Z
2019-06-13T14:27:57Z,42.805,6.029,13.2953,4.59951,2469.821,2019-6-13T16:28:13Z
2019-06-13T14:31:00Z,42.805,6.029,13.2953,4.59951,2469.797,2019-6-13T16:31:16Z
2019-06-13T14:34:03Z,42.805,6.029,13.2953,4.59952,2469.806,2019-6-13T16:34:19Z
2019-06-13T14:37:06Z,42.805,6.029,13.2955,4.59951,2469.821,2019-6-13T16:37:22Z
2019-06-13T14:40:09Z,42.805,6.029,13.2952,4.59954,2469.783,2019-6-13T16:40:25Z
2019-06-13T14:43:12Z,42.805,6.029,13.2949,4.59951,2469.806,2019-6-13T16:43:28Z
2019-06-13T14:46:15Z,42.805,6.029,13.2953,4.59952,2469.844,2019-6-13T16:46:31Z
2019-06-13T14:49:18Z,42.805,6.029,13.2952,4.59951,2469.806,2019-6-13T16:49:34Z
2019-06-13T14:52:21Z,42.805,6.029,13.2953,4.59951,2469.821,2019-6-13T16:52:37Z
2019-06-13T14:55:23Z,42.805,6.029,13.2953,4.59952,2469.844,2019-6-13T16:55:39Z
2019-06-13T14:58:26Z,42.805,6.029,13.2953,4.59951,2469.821,2019-6-13T16:58:42Z
2019-06-13T15:01:29Z,42.805,6.029,13.2949,4.59952,2469.806,2019-6-13T17:01:45Z
2019-06-13T15:04:32Z,42.805,6.029,13.2951,4.59952,2469.806,2019-6-13T17:04:48Z
2019-06-13T15:07:35Z,42.805,6.029,13.2952,4.59952,2469.806,2019-6-13T17:07:51Z
2019-06-13T15:10:38Z,42.805,6.029,13.2955,4.59951,2469.83,2019-6-13T17:10:54Z
2019-06-13T15:13:41Z,42.805,6.029,13.2957,4.59951,2469.83,2019-6-13T17:13:57Z